STARLINK-32272, 60735

Orbit data source: Space-Track

STARLINK-32272, 60735 is a payload satellite owned by SpaceX/Seattle (US) in LEO that was launched on Wed, 28 Aug 2024 UTC via an FALCON 9 launch vehicle from the Air Force Eastern Test Range (AFETR). Payload-class satellites include a variety of spacecraft equipped with specific instruments for various scientific and technological missions. These include communications satellites like Starlink; space stations such as the ISS; scientific satellites like the Hubble; Earth observation satellites from companies like Planet Labs, Umbra, and HawkEye 360; GPS; miniature CubeSats for education and research; and military/defense satellites.

Loading next visibility...
Identifier
60735, 2024-152R
Orbit
LEO
Last TLE update
10 hours ago
Origin
Manufacturer
SpaceX/Seattle
Mission
Operational Commercial Communications
Bus & Motor
STARLINK V2M, Unknown motor
Mass
730 kg wet, ~700 kg dry
Launch date (UTC)
2024-08-28 (10 months ago)
Launch vehicle
FALCON 9
Launch site
Air Force Eastern Test Range (AFETR)
Object type
Payload
Rocket body
Debris
Shape & HBR
Box + 2 Pan, 29 m
Radar Cross Section
36.964 m², Large (>1 m²)

Expand to show TLE details & history

TLE from 10 hours ago
0 STARLINK-32272
1 60735U 24152R   25182.79778226 -.00000198  00000-0  54530-5 0  9992
2 60735  53.1614 354.1205 0001086  92.1059 268.0066 15.30189538 48399
Epoch: 2025-07-01T19:08Z
TLE epoch observation values (Epoch: 2025-07-01T19:08:48.387Z)
Latitude
-0.00002°
Longitude
146.8308°
Altitude
476.172 km
Speed
7.629 km/s
True Right ascension
23h 36m 28s
True Declination
0° 00' 00"
Sunlit
Object was in daylight at epoch
Visualization orbit readout
Latitude
-37.38379°
Longitude
-0.48351°
Altitude
487.872 km
Speed
7.621 km/s
Apparent Right ascension
09h 56m 24s
Apparent Declination
-60° 59' 57"
Sunlit
Object is in full shadow
Visualization observer readout
Local Sidereal Time
17:14:31
Azimuth
218.873° SW
Elevation
-43.275°
Doppler factor
1
Orbital elements
Apogee altitude
476.247 km
Perigee altitude
474.758 km
Semi-major axis
6,853.64 km
Eccentricity
0.00011
Inclination
53.1614°
RAAN
354.1205°
Arg. of periapsis
92.1059°
True anomaly
Unknown
Mean anomaly
268.0066°
Eccentric anomaly
Unknown
Mean motion
3.82526 °/min
Orbital period
94.11 mins
BSTAR
0.000005453
Loading maneuver chart data...
Loading SW <> Apogee altitude chart data...
Loading historical data...
Loading historical data...
Loading historical data...
Loading historical data...
Loading historical data...
Loading historical data...
Loading historical data...

STARLINK-32272 Visibility forecast

Observer location: undefined°, undefined°

Span
Click to sort rows by Start time (UTC) header in descending order
Start Az.
Max El. time (UTC)
Max El. Az.
Max El.
End time (UTC)
End Az.
6 mins2025-07-02 14:07:55.846Z227.301° WSW2025-07-02 14:10:55.846Z215.461° SW43.792°2025-07-02 14:13:55.846Z51.117° ENE
4 mins2025-07-02 15:47:55.846Z304.624° NW2025-07-02 15:49:55.846Z345.702° N17.628°2025-07-02 15:51:55.846Z20.745° NNE
4 mins2025-07-02 19:05:55.846Z345.052° N2025-07-02 19:07:55.846Z21.398° NNE15.79°2025-07-02 19:09:55.846Z56.765° ENE
6 mins2025-07-02 20:43:55.846Z316.879° NNW2025-07-02 20:45:55.846Z352.788° N41.921°2025-07-02 20:49:55.846Z123.522° SE
|